Wind_Speed
3 4 2 3 5 5 2 4 4 8 6 2 8 6 9 10 4 7 18 20 21 22 21 22 21 21 21 22 22 22 20 20 20 21 20 19 16 18 15 14 13 11 11 12 11 12 14 15 18
6 5 2 1 4 4 2 4 9 7 6 9 7 10 11 6 6 12 15 22 24 24 23 22 22 20 19 19 19 18 18 18 16 16 16 16 15 15 13 13 11 10 9 10 9 10 13 15 16
8 14 1 3 4 4 4 4 8 12 13 7 5 7 4 4 14 18 18 25 25 25 23 21 22 21 17 16 15 14 14 14 14 14 13 12 12 12 10 10 9 8 8 8 7 9 12 15 14
6 3 3 3 7 3 10 11 17 14 11 11 11 8 5 6 14 14 29 26 24 23 22 21 21 20 18 15 16 13 12 12 11 11 9 9 9 9 8 7 7 6 6 6 6 7 10 14 16
3 3 3 5 11 12 13 17 17 12 5 15 10 6 6 5 15 33 27 23 24 24 22 20 20 18 17 15 14 13 12 10 9 8 7 5 6 6 5 5 5 4 4 5 6 6 9 12 15
3 1 3 7 10 7 14 17 13 16 13 14 12 9 3 22 33 29 23 29 23 24 21 19 18 17 14 13 13 12 11 9 8 6 7 4 3 4 4 4 4 4 5 6 7 8 8 10 12
2 3 3 9 9 10 16 16 16 15 16 8 12 7 6 16 25 30 25 27 24 25 23 20 18 16 15 14 12 11 10 8 7 6 4 4 3 3 4 5 5 4 5 6 8 9 9 10 12
2 2 2 4 7 9 16 15 15 24 9 13 13 6 8 18 26 26 23 23 25 23 20 20 19 17 15 14 13 11 9 8 7 6 5 5 4 4 4 4 5 5 6 6 8 8 9 11 11
3 4 2 3 12 11 18 16 12 8 17 12 5 6 17 28 30 25 23 21 23 22 21 20 19 17 16 14 13 11 9 7 8 6 4 4 4 5 6 6 5 5 6 5 7 8 10 10 11
4 2 5 4 10 16 21 18 15 9 17 7 15 10 23 26 30 24 21 19 20 20 21 21 20 18 16 14 14 12 10 9 7 7 5 6 6 8 7 6 4 4 6 6 7 8 11 11 12
2 4 8 10 10 16 18 19 10 23 13 22 22 14 22 25 24 26 22 24 27 22 20 20 19 19 17 14 14 13 12 11 8 6 6 6 6 2 7 3 6 6 8 9 9 8 10 12 12
4 9 6 7 9 9 11 13 13 21 11 22 21 17 21 19 22 25 24 25 24 23 21 20 19 18 18 15 14 14 13 12 7 7 9 12 7 10 4 4 5 8 7 10 11 12 11 11 10
4 5 7 8 8 12 8 7 14 15 23 18 18 16 14 15 25 28 28 27 27 26 23 23 23 21 18 15 15 13 11 10 7 8 9 6 4 3 2 4 5 7 11 10 13 11 11 12 12
3 7 8 3 5 9 13 9 7 16 24 20 19 18 15 15 22 18 21 24 27 25 25 25 29 20 23 19 12 8 12 9 12 9 7 3 2 1 4 4 6 8 9 8 11 13 12 13 13
3 6 9 8 9 3 12 7 12 21 23 23 19 18 17 16 21 22 27 29 33 29 26 26 26 20 23 19 11 6 11 15 13 12 6 4 3 3 4 6 7 9 11 9 10 12 11 15 13
6 5 5 2 13 6 5 3 15 20 21 20 19 18 17 15 19 23 31 34 28 30 31 29 25 22 20 17 15 10 8 10 11 11 8 6 7 7 7 8 6 3 7 10 9 7 11 3 13
5 5 3 9 5 4 1 5 8 17 17 16 16 17 16 15 11 25 34 36 32 32 31 29 22 19 19 18 17 13 9 8 11 13 13 6 7 7 8 7 5 5 10 10 14 12 13 10 12
8 7 5 8 3 3 4 5 13 14 16 15 13 13 12 11 9 27 31 37 31 34 33 31 24 20 19 18 16 14 10 12 10 12 12 6 9 10 5 5 5 4 9 16 10 14 9 5 9
8 11 13 15 10 5 4 6 12 10 12 11 9 9 11 9 11 28 32 33 34 34 35 32 28 24 24 21 17 13 9 12 12 13 10 7 7 9 6 6 9 6 9 15 13 12 10 12 16
12 10 6 6 6 7 5 5 10 6 12 14 13 11 12 7 11 16 26 30 35 38 34 33 34 29 26 23 22 15 11 14 16 14 13 10 8 8 9 6 9 8 10 11 13 14 12 14 16
5 6 3 6 7 8 8 3 6 5 4 9 10 11 11 12 16 10 20 28 31 35 33 31 34 32 27 23 20 11 12 14 16 17 13 13 12 10 12 10 8 8 9 12 14 15 14 12 13
6 7 8 6 7 4 6 5 6 3 7 10 12 14 14 12 16 15 17 25 31 37 37 31 31 34 30 24 19 16 14 16 15 17 15 12 12 10 12 12 9 8 9 11 11 16 15 13 19
13 14 11 7 14 4 6 4 7 5 11 10 15 15 17 16 20 17 19 30 34 34 36 34 34 34 32 26 23 22 22 17 11 10 18 19 17 10 8 10 10 10 9 10 10 13 13 13 16
8 12 6 4 4 1 13 6 5 10 25 20 19 15 20 17 19 19 27 31 30 30 33 37 35 37 34 29 27 21 20 13 10 9 9 21 16 13 13 12 10 10 11 11 10 15 15 13 12
8 7 0 1 4 6 5 3 8 23 19 11 19 16 21 18 16 18 18 23 27 30 31 34 38 38 37 32 30 27 20 17 13 9 15 20 20 16 16 15 13 12 14 13 12 14 15 15 15
3 8 6 4 2 4 3 5 6 13 13 6 6 10 14 18 17 18 20 25 31 33 33 34 38 36 37 35 31 30 21 20 15 11 17 21 20 19 11 16 13 12 15 15 13 15 13 13 13
5 3 7 6 2 3 4 6 9 5 8 7 8 11 16 16 18 17 19 28 27 34 36 39 39 38 38 37 32 28 28 23 16 15 14 15 11 13 17 16 17 15 15 15 16 14 14 12 13
8 4 1 4 2 4 5 4 5 5 9 8 10 11 7 6 2 11 12 25 28 36 39 37 41 43 42 37 33 31 28 25 24 16 15 14 12 12 16 19 20 19 18 19 17 15 14 15 15
1 2 4 6 6 5 3 6 9 11 11 14 10 8 15 11 7 4 3 20 33 34 33 35 34 33 33 35 33 28 26 24 23 24 18 14 15 15 18 17 17 19 19 19 20 17 16 16 15
9 13 7 5 6 2 5 6 4 11 15 12 15 15 12 15 11 8 10 11 22 31 28 26 26 32 36 34 31 29 25 24 22 22 22 16 14 14 14 17 19 20 20 19 21 20 19 19 19
Wind_Direction
220 212 176 335 51 61 26 54 109 121 155 160 152 128 104 36 50 128 142 140 142 138 133 133 129 126 121 120 117 113 105 100 102 103 104 106 105 103 103 100 99 96 105 106 110 109 110 112 109
206 183 225 265 84 84 342 133 152 171 151 104 70 97 48 67 67 123 140 150 146 140 139 140 135 132 132 128 125 117 114 114 110 108 108 112 111 106 106 107 104 106 96 105 106 111 111 117 117
216 215 96 81 121 133 142 226 138 118 134 122 111 71 78 89 120 149 156 149 146 145 144 145 144 138 135 137 134 132 130 129 128 123 119 115 112 113 113 114 113 107 107 108 109 113 117 122 126
292 215 40 47 123 15 122 130 124 133 106 82 113 71 67 124 135 151 143 147 146 148 148 150 148 147 146 149 142 142 142 143 140 133 129 121 124 122 132 132 123 124 130 124 119 121 127 127 130
274 327 79 81 92 122 122 125 131 113 67 100 103 96 109 128 141 143 148 158 152 152 152 150 149 149 151 154 151 154 153 158 151 151 137 136 139 122 130 149 152 164 149 152 151 143 139 139 140
27 241 73 115 145 131 138 135 117 109 110 106 102 108 82 134 141 151 152 162 157 156 154 150 154 157 156 156 157 159 161 167 167 173 158 167 181 148 168 193 175 176 157 176 170 166 157 154 158
74 20 274 122 137 150 148 137 132 124 128 131 145 104 124 152 157 152 156 161 160 158 155 157 159 163 160 161 159 159 166 176 177 178 198 197 212 206 194 188 168 166 151 170 181 179 170 164 163
58 355 325 72 102 144 142 137 146 139 142 142 138 143 164 177 159 155 160 161 160 161 162 163 164 167 165 168 167 165 177 180 183 201 202 206 217 210 217 171 161 166 154 166 175 189 182 170 165
28 38 93 114 90 123 146 137 164 139 136 154 202 121 166 158 153 152 153 159 164 167 167 171 171 170 171 172 169 165 178 177 198 190 189 213 205 208 211 192 158 172 174 169 181 183 187 174 170
136 117 197 147 127 135 156 149 151 139 142 132 120 118 157 151 159 156 160 167 173 172 175 177 176 175 177 180 178 172 170 185 187 154 177 223 232 235 225 225 225 202 195 189 197 194 188 182 174
175 189 136 138 138 143 153 155 142 146 167 153 157 143 145 150 149 158 169 175 179 175 174 185 179 178 177 181 178 171 170 188 169 164 197 239 256 188 216 183 226 237 206 198 204 209 204 186 180
304 108 122 174 156 151 170 167 152 166 167 160 155 147 145 149 160 168 179 183 179 176 183 188 185 183 185 183 184 175 182 184 182 175 219 240 256 260 242 226 204 225 223 207 205 206 212 199 190
359 98 133 175 172 168 175 191 155 171 145 155 153 153 156 163 175 181 182 186 182 183 189 199 193 190 193 192 202 196 202 204 199 212 222 286 257 258 215 194 206 214 213 215 210 206 207 210 212
325 34 354 94 71 130 123 115 93 140 143 154 159 167 182 186 191 183 179 188 190 188 190 197 202 203 205 200 194 216 212 216 211 206 233 278 251 234 209 216 222 221 222 232 223 215 215 218 227
87 43 359 14 23 86 98 88 136 152 152 158 168 176 191 199 195 180 180 180 185 182 174 175 169 165 173 175 173 187 201 213 212 206 192 211 201 223 224 246 245 251 245 255 263 240 237 242 232
50 32 25 288 349 298 89 176 153 158 158 165 175 183 195 205 203 189 182 183 192 183 181 178 187 190 186 183 179 186 191 191 209 197 203 178 180 198 217 231 255 235 239 235 222 205 225 202 209
12 140 209 325 276 273 50 118 179 167 166 173 183 189 199 210 187 187 181 185 190 185 184 182 183 187 192 184 189 196 210 196 187 197 208 203 191 192 192 217 234 208 233 221 219 213 223 220 212
180 125 185 216 253 208 148 124 171 174 168 183 190 195 201 202 178 173 175 184 189 191 184 183 181 169 170 171 187 201 219 215 205 200 216 170 193 185 197 211 193 216 254 218 228 216 201 155 156
155 140 187 199 202 140 221 129 176 183 178 195 205 207 207 196 188 170 175 179 181 179 180 183 182 173 174 178 195 206 212 200 211 219 209 196 179 190 196 208 165 161 144 157 165 155 138 127 142
159 168 230 317 173 145 191 182 165 195 202 194 200 207 205 174 166 162 168 171 180 179 181 185 188 179 183 187 195 207 198 196 211 211 212 201 201 201 195 199 191 178 167 164 159 150 136 136 148
190 213 167 99 44 357 132 352 238 196 173 210 211 206 200 178 174 177 163 172 174 177 181 183 186 182 185 192 203 179 173 190 202 206 206 204 208 207 211 204 197 182 181 178 178 175 160 157 164
192 185 168 154 125 189 272 221 290 185 228 201 196 200 198 185 182 182 169 173 178 184 183 185 187 183 183 188 191 185 182 178 208 219 210 208 202 201 195 197 202 200 209 194 188 185 185 178 191
215 187 199 131 189 122 234 112 269 170 254 219 211 202 196 192 187 187 178 182 187 184 187 187 185 185 186 192 200 204 209 219 208 215 218 199 211 223 222 203 196 198 196 189 198 190 182 196 202
165 179 39 87 111 268 228 154 247 201 222 210 208 190 193 195 191 192 189 185 185 186 186 189 190 191 192 197 202 211 216 215 200 224 201 194 204 216 224 219 219 210 201 205 196 195 198 194 194
118 79 225 159 174 214 229 153 224 222 218 211 185 185 189 194 187 195 189 187 183 183 186 189 194 197 201 204 206 212 217 216 206 208 206 198 204 213 217 216 217 224 212 211 205 208 212 206 204
155 136 148 196 209 265 349 238 259 223 207 115 103 153 177 188 197 193 199 186 186 184 187 189 196 202 206 207 207 209 210 217 225 205 195 205 221 231 231 217 220 227 214 219 217 213 222 215 213
265 158 183 126 69 69 251 290 316 116 129 137 163 159 183 186 193 198 198 201 181 185 189 192 197 202 207 209 208 207 209 211 215 211 217 217 234 247 228 224 223 226 222 224 230 228 228 229 230
159 176 66 13 186 241 276 269 238 179 188 210 213 178 110 76 314 212 194 199 189 188 190 193 200 201 208 209 210 209 209 214 218 218 226 237 236 236 215 220 228 231 232 234 233 238 240 240 242
87 283 71 123 140 173 194 259 213 200 191 202 224 154 140 143 100 217 212 218 189 185 184 190 197 203 202 206 209 210 209 211 219 224 228 239 240 235 220 235 227 230 238 240 237 243 244 245 243
172 200 141 126 259 208 157 272 238 183 182 189 201 126 152 159 172 184 141 211 219 178 135 218 215 201 207 206 206 209 210 213 215 219 218 223 230 228 230 239 242 242 243 241 240 246 249 248 254
Height
770 769 771 770 800 803 811 806 787 798 797 782 784 790 800 803 804 831 820 822 824 827 828 829 829 830 831 832 833 834 836 838 839 839 841 842 846 845 848 849 848 849 849 848 849 850 851 852 853
772 771 773 774 810 827 820 796 801 792 786 784 786 789 796 812 804 813 819 822 824 826 827 828 830 831 832 834 835 837 838 839 841 842 844 845 847 848 850 850 850 851 851 851 851 852 853 854 856
773 770 777 786 808 820 820 797 791 785 783 785 794 791 800 811 808 813 816 820 823 824 827 829 830 831 834 835 837 838 840 840 842 843 845 847 848 850 852 852 851 852 853 853 853 853 855 856 857
773 765 771 794 805 791 792 790 787 789 788 784 791 804 802 805 807 811 816 820 824 826 827 830 830 832 834 836 837 839 841 842 844 845 847 847 849 849 851 852 852 853 853 854 855 855 856 857 858
771 771 793 799 801 790 785 784 785 792 791 793 791 808 810 809 810 814 818 822 823 826 829 830 833 834 835 838 838 839 841 845 846 847 848 849 850 851 853 854 853 853 853 855 856 856 857 859 859
776 778 802 812 803 790 784 783 787 792 794 798 802 805 811 810 812 816 819 821 824 827 830 832 834 836 837 839 839 841 843 845 847 849 848 850 852 851 854 856 855 855 854 855 856 857 858 859 860
780 789 797 792 796 796 787 781 790 795 799 802 795 811 814 814 815 816 820 823 825 828 830 833 834 837 838 840 842 843 845 846 847 848 850 852 852 852 853 855 855 855 856 855 856 857 858 859 860
777 785 790 785 792 799 784 785 787 786 799 792 794 814 820 811 815 819 822 825 827 828 830 832 835 838 839 841 843 844 845 846 847 847 848 850 851 852 853 853 855 855 856 856 857 857 858 859 860
774 803 803 789 788 791 780 791 790 783 791 793 792 796 800 809 815 820 824 828 829 830 829 832 835 838 839 841 842 844 845 846 847 847 848 850 850 851 851 852 854 855 856 858 858 857 858 859 861
787 803 789 769 774 785 782 781 789 796 799 801 799 799 803 808 815 819 823 825 828 829 830 831 833 837 840 842 843 843 844 846 846 846 847 847 849 850 850 852 854 855 855 858 858 858 858 859 862
778 789 768 766 767 769 779 784 780 796 808 795 799 801 803 809 815 819 821 822 823 826 830 832 834 837 840 842 844 844 844 846 845 846 845 846 849 850 852 853 854 854 855 855 857 858 860 860 861
787 760 765 767 762 769 778 772 784 785 790 788 790 795 802 809 814 816 818 819 823 826 828 832 834 837 841 843 844 844 844 844 844 845 846 847 848 850 852 853 852 853 854 854 854 856 858 860 861
785 763 763 760 762 767 768 776 780 786 786 793 795 798 802 806 809 810 814 817 819 823 826 829 833 837 841 841 844 844 844 842 843 845 846 847 848 849 851 852 850 850 852 853 853 855 857 859 860
778 776 773 765 766 766 776 779 779 789 787 795 797 799 800 802 804 809 812 815 818 821 824 827 831 835 839 842 843 842 843 842 844 846 847 847 848 849 849 851 849 849 850 852 853 854 856 858 858
777 786 785 778 782 780 770 796 797 789 789 795 798 798 798 799 803 805 807 811 815 819 822 826 830 834 837 841 841 841 841 842 845 848 847 848 848 848 848 850 850 850 850 852 853 853 855 855 856
792 802 821 789 788 782 782 817 795 789 792 797 796 795 796 797 799 803 805 808 813 818 820 825 830 832 835 838 840 840 840 844 846 850 849 848 846 845 847 850 850 850 849 851 853 854 853 853 854
814 833 817 810 783 787 788 812 798 789 792 797 796 794 793 793 797 798 801 806 810 814 817 823 827 829 833 836 838 839 841 844 845 846 846 843 844 845 846 848 848 849 848 849 850 851 850 850 852
827 825 819 816 790 785 796 801 794 792 793 795 794 792 791 790 791 793 798 802 807 811 814 819 824 827 831 834 837 839 841 843 844 844 843 840 842 844 845 846 846 847 845 847 848 848 850 849 851
790 800 795 785 777 792 806 799 793 792 791 797 798 795 791 789 786 791 794 799 804 808 812 816 820 824 829 832 835 838 840 841 841 840 841 840 840 842 843 844 845 846 845 846 848 849 850 849 851
789 796 800 778 777 788 804 801 789 789 788 791 793 792 790 788 788 791 794 797 799 804 810 814 817 822 826 830 832 836 838 840 839 839 840 840 840 841 842 844 844 845 846 846 848 847 849 851 852
793 794 799 798 788 797 804 811 801 785 787 787 788 786 785 786 787 789 792 793 797 801 807 811 815 818 823 828 831 834 836 837 839 839 839 839 840 841 842 843 844 844 845 845 847 847 847 850 853
807 767 772 782 804 842 808 846 820 794 790 782 781 782 780 782 781 783 788 792 794 797 802 807 812 816 820 825 828 831 833 835 835 836 838 839 839 839 840 842 843 843 845 844 845 847 848 849 850
769 757 755 767 806 817 804 832 815 796 795 789 776 774 772 773 776 779 784 786 789 795 800 803 809 814 819 821 825 828 831 832 834 835 836 838 836 836 840 841 842 843 844 844 846 846 847 847 848
740 759 771 783 806 845 805 811 813 794 769 761 758 763 763 768 772 774 777 781 787 793 797 801 806 810 815 818 821 825 829 830 832 832 833 835 836 838 839 839 840 842 843 844 845 845 846 845 845
758 791 830 832 843 833 796 798 786 755 745 752 753 757 758 763 767 769 773 779 784 788 792 797 801 806 811 814 818 822 825 829 830 831 833 834 836 837 838 838 839 840 841 842 843 843 842 842 842
752 777 822 827 833 822 786 803 774 740 737 745 749 751 754 760 762 765 767 771 777 783 787 792 795 802 807 810 814 818 823 825 827 829 831 833 834 835 837 837 838 839 840 840 841 841 841 842 842
758 777 768 800 805 823 809 780 751 740 745 749 748 745 750 753 756 760 763 769 772 777 780 785 790 796 801 805 811 815 820 823 824 827 829 831 832 831 833 834 836 836 837 837 838 838 839 841 842
742 743 783 811 816 822 816 794 791 755 753 746 744 748 758 759 762 757 758 765 768 769 774 783 788 790 793 801 806 811 816 820 822 825 826 828 829 829 830 831 832 833 834 835 836 836 838 840 841
754 766 773 789 809 825 832 808 749 743 742 739 739 739 751 750 752 754 761 764 757 765 775 781 790 795 795 798 802 807 812 816 819 821 824 825 826 827 829 829 830 831 831 832 834 836 837 838 838
733 746 768 806 800 808 810 792 718 720 724 726 726 737 736 728 738 748 753 756 760 759 780 788 795 793 795 795 799 804 809 812 815 817 820 823 824 825 826 827 827 828 829 832 833 832 833 833 834